Regional Weather Roundup
Issued by NWS

Home | Current Version | Previous Version | Graphics & Text | Print | Product List | Glossary On
Versions: 1 2 3 4 5 6 7 8 9 10 11 12 13 14 15 16 17 18 19 20 21 22 23 24 25 26 27 28 29 30 31 32 33 34 35 36 37 38 39 40 41 42 43 44 45 46 47 48 49 50
000
ASUS43 KMPX 010610
RWRMN
WEATHER ROUNDUP FOR MINNESOTA
NATIONAL WEATHER SERVICE TWIN CITIES/CHANHASSEN MN
100 AM CDT FRI AUG 01 2014


NOTE: "FAIR" INDICATES FEW OR NO CLOUDS BELOW 12,000 FEET WITH NO
SIGNIFICANT WEATHER AND/OR OBSTRUCTIONS TO VISIBILITY. N/A MEANS
CURRENT SKY AND/OR WEATHER CONDITIONS ARE NOT AVAILABLE.

MNZ060>063-068>070-010700-
   Twin Cities Metro

CITY           SKY/WX    TMP DP  RH WIND       PRES   REMARKS
TWIN CITIES    CLEAR     71  60  68 SW3       30.02S
6HR MIN TEMP:  70; 6HR MAX TEMP:  80;

ST PAUL        CLEAR     66  62  87 CALM      30.01F
CRYSTAL        CLEAR     66  58  75 CALM      30.01R
BLAINE         CLEAR     64  61  88 CALM      30.01S
LAKEVILLE      CLEAR     61  57  88 CALM      30.03S
EDEN PRAIRIE   CLEAR     67  59  75 W5        30.02R
6HR MIN TEMP:  66; 6HR MAX TEMP:  80;

SOUTH ST PAUL  CLEAR     69  58  68 SW5       30.01S
LAKE ELMO      FAIR      61  59  94 CALM      30.02S
$$
MNZ001>005-007-008-013>017-022>024-027-028-010700-
   Northwest Minnesota

CITY           SKY/WX    TMP DP  RH WIND       PRES   REMARKS
BEMIDJI        CLEAR     58  57  96 CALM      30.03R
HALLOCK        CLEAR     63  59  88 CALM      30.02R
ROSEAU           N/A     63  54  72 W5        30.02R
WARROAD        CLEAR     59  55  88 W3        30.02R
THIEF RVR FALL CLEAR     64  61  88 CALM      30.03R
CROOKSTON      CLEAR     64  63  94 CALM      30.03R
FOSSTON        PTCLDY    57  55  94 CALM      30.04S FOG
DETROIT LAKES  CLEAR     63  63 100 CALM      30.05S
MOORHEAD       CLEAR     66  64  94 CALM      30.03S
PARK RAPIDS    CLEAR     58  57  97 W3        30.04R
$$
MNZ006-009>011-018-025>026-010700-
   North Central Minnesota

CITY           SKY/WX    TMP DP  RH WIND       PRES   REMARKS
BAUDETTE       CLEAR     59  57  93 CALM      30.02R
FLAG ISLAND    CLEAR     70  63  78 CALM      30.00R
INTL FALLS     CLEAR     51  50  96 CALM      30.00S
6HR MIN TEMP:  51; 6HR MAX TEMP:  74;

WASKISH        CLEAR     55  55 100 CALM      30.02R
BIG FORK       CLEAR     54  52  94 CALM      30.02S
LONGVILLE      CLEAR     57  55  94 CALM      30.03R FOG
GRAND RAPIDS   CLEAR     57  54  88 S3        30.03R
CRANE LAKE     CLEAR     48  48 100 CALM      30.02S FOG
ORR            CLEAR     52  50  93 CALM      30.00S FOG
COOK           CLEAR     54  52  94 CALM      30.02S
$$
MNZ012-019>021-037-010700-
   Northeast Minnesota

CITY           SKY/WX    TMP DP  RH WIND       PRES   REMARKS
DULUTH         PTCLDY    60  55  83 CALM      30.02R
6HR MIN TEMP:  60; 6HR MAX TEMP:  77;

ELY            CLEAR     52  48  87 CALM      30.01S
HIBBING        FOG       53  50  89 CALM      30.02R VSB 1
EVELETH        FOG       52  52 100 CALM      30.03S VSB 1/4
DULUTH HARBOR  PTCLDY    64  61  88 CALM      30.00R
TWO HARBORS    CLEAR     57  52  82 NW5       29.99S
SILVER BAY     CLEAR     52  52 100 CALM      29.99R
GRAND MARAIS     N/A     58  49  72 CALM      29.98R
G MARAIS ARPRT CLEAR     52  45  76 N5        30.02S
$$
MNZ029>031-032-039>041-046>048-054>057-064-010700-
   West Central Minnesota

CITY           SKY/WX    TMP DP  RH WIND       PRES   REMARKS
FERGUS FALLS   CLEAR     64  57  77 CALM      30.03S
WHEATON        CLEAR     61  55  82 CALM      30.06R
MORRIS         CLEAR     61  59  94 CALM      30.04R
ALEXANDRIA     CLEAR     64  61  90 SW3       30.06S
ELBOW LAKE     FAIR      63  61  94 S3        30.04S
WADENA         CLEAR     59  57  94 CALM      30.04S
GLENWOOD       CLEAR     64  61  88 W3        30.06R
APPLETON       CLEAR     63  57  82 CALM      30.04S
BENSON         CLEAR     57  57 100 CALM      30.05R FOG
ORTONVILLE     CLEAR     64  57  77 W3        30.05R
MADISON          N/A     63  61  94 W3        30.05S
WILLMAR        FAIR      61  55  82 CALM      30.06S
$$
MNZ033>034-036-042>043-049>051-058-059-010700-
   Central Minnesota

CITY           SKY/WX    TMP DP  RH WIND       PRES   REMARKS
ST CLOUD       CLEAR     63  59  87 CALM      30.02S
6HR MIN TEMP:  63; 6HR MAX TEMP:  83;

SAUK CENTRE    FAIR      61  58  89 CALM      30.05S
PAYNESVILLE    CLEAR     55  55  97 SW3       30.05R
AITKIN         PTCLDY    59  54  82 CALM      30.02R HAZE
PINE RIVER     CLEAR     57  55  94 CALM      30.07R
BRAINERD       CLEAR     59  59 100 CALM      30.03S
STAPLES        CLEAR     59  57  94 W1        30.04S
LONG PRAIRIE   FAIR      59  57  94 CALM      30.05S
LITTLE FALLS   PTCLDY    59  59 100 CALM      30.03S FOG
LITCHFIELD       N/A     64  61  88 CALM      30.05R
BUFFALO        CLEAR     65  59  78 CALM      30.04R
MAPLE LAKE     CLEAR     63  60  92 CALM      30.04S
$$
MNZ037-044-045-052-053-010700-
   East Central Minnesota

CITY           SKY/WX    TMP DP  RH WIND       PRES   REMARKS
PRINCETON      CLEAR     63  59  88 CALM      30.02S
MORA           PTCLDY    63  61  94 CALM      30.03S
CAMBRIDGE      CLEAR     68  57  68 CALM      30.00R
RUSH CITY      PTCLDY    63  59  87 CALM      30.01S
MOOSE LAKE     PTCLDY    57  55  94 CALM      30.00R FOG
HINCKLEY       FAIR      61  59  94 CALM      30.01S
CLOQUET        CLEAR     59  55  88 CALM      30.02S
MCGREGOR       CLEAR     59  57  94 CALM      30.03R
$$
MNZ071>073-080-081-089-090-097-098-010700-
   Southwest Minnesota

CITY           SKY/WX    TMP DP  RH WIND       PRES   REMARKS
MONTEVIDEO     CLEAR     63  55  77 CALM      30.05S
GRANITE FALLS  CLEAR     58  56  91 SW3       30.06S
CANBY          CLEAR     60  56  87 W3        30.07R
MARSHALL       CLEAR     59  54  82 CALM      30.05R
REDWOOD FALLS  CLEAR     65  59  81 CALM      30.05R
OLIVIA         CLEAR     61  57  88 CALM      30.04S
PIPESTONE      CLEAR     61  55  82 CALM      30.08S
WINDOM         CLEAR     57  55  94 CALM      30.07S
WORTHINGTON    CLEAR     61  57  88 SW6       30.09S
JACKSON        CLEAR     61  57  88 CALM      30.08S
TRACY          CLEAR     64  58  83 SW6       30.07S
SLAYTON        CLEAR     58  56  93 CALM      30.09S
$$
MNZ065>067-074>077-082>085-091>093-010700-
   South Central Minnesota

CITY           SKY/WX    TMP DP  RH WIND       PRES   REMARKS
MANKATO        CLEAR     64  54  68 SW3       30.05R
NEW ULM        CLEAR     61  61 100 SW3       30.04S
ST JAMES       CLEAR     59  55  88 CALM      30.06S
FAIRMONT       CLEAR     63  55  77 W3        30.06S
GLENCOE        CLEAR     65  59  81 SW3       30.03S
FARIBAULT      CLEAR     61  55  82 CALM      30.05R
OWATONNA       CLEAR     57  55  94 CALM      30.05S
WASECA         CLEAR     55  52  88 CALM      30.07R
ALBERT LEA     CLEAR     61  59  94 CALM      30.06S
$$
MNZ078>079-086>088-094>096-010700-
   Southeast Minnesota

CITY           SKY/WX    TMP DP  RH WIND       PRES   REMARKS
ROCHESTER      CLEAR     61  56  83 SW6       30.07R
6HR MIN TEMP:  61; 6HR MAX TEMP:  76;

RED WING       CLEAR     61  59  94 CALM      30.01S
STANTON        CLEAR     60  56  87 CALM      30.02S
DODGE CENTER   PTCLDY    61  57  88 SW6       30.06S
WINONA         CLEAR     61  59  94 CALM      30.02S
AUSTIN         CLEAR     57  55  94 CALM      30.06R
PRESTON        CLEAR     62  59  90 CALM      30.06S
$$
ABBREVIATIONS USED IN REMARKS
   TC - TEMPERATURES IN CELSIUS
  WCI - WIND CHILL INDEX
   HX - HEAT INDEX
  VSB - VISIBILITY
$$



USA.gov is the U.S. government's official web portal to all federal, state and local government web resources and services.